TimeEST,TemperatureF,Dew PointF,Humidity,Sea Level PressureIn,VisibilityMPH,Wind Direction,Wind SpeedMPH,Gust SpeedMPH,PrecipitationIn,Events,Conditions,WindDirDegrees,DateUTC
12:15 AM,32.0,28.4,87,30.28,10.0,Calm,Calm,-,N/A,,Clear,0,2012-12-07 05:15:00
12:36 AM,32.0,28.4,87,30.27,10.0,Calm,Calm,-,N/A,,Mostly Cloudy,0,2012-12-07 05:36:00
12:58 AM,33.8,32.0,93,30.26,10.0,Calm,Calm,-,N/A,,Overcast,0,2012-12-07 05:58:00
1:19 AM,35.6,32.0,87,30.26,10.0,Calm,Calm,-,N/A,,Overcast,0,2012-12-07 06:19:00
1:40 AM,35.6,32.0,87,30.25,10.0,Calm,Calm,-,N/A,,Overcast,0,2012-12-07 06:40:00
2:02 AM,35.6,32.0,87,30.25,10.0,Calm,Calm,-,N/A,,Overcast,0,2012-12-07 07:02:00
2:23 AM,35.6,32.0,87,30.24,10.0,Calm,Calm,-,N/A,,Overcast,0,2012-12-07 07:23:00
2:44 AM,35.6,32.0,87,30.24,10.0,Calm,Calm,-,N/A,,Overcast,0,2012-12-07 07:44:00
3:05 AM,37.4,32.0,81,30.23,10.0,Calm,Calm,-,N/A,,Overcast,0,2012-12-07 08:05:00
3:27 AM,37.4,33.8,87,30.22,10.0,Calm,Calm,-,N/A,,Overcast,0,2012-12-07 08:27:00
3:48 AM,37.4,33.8,87,30.22,10.0,Calm,Calm,-,N/A,,Overcast,0,2012-12-07 08:48:00
4:09 AM,37.4,33.8,87,30.21,10.0,Calm,Calm,-,N/A,,Overcast,0,2012-12-07 09:09:00
4:31 AM,39.2,33.8,81,30.21,10.0,Calm,Calm,-,N/A,,Overcast,0,2012-12-07 09:31:00
4:52 AM,37.4,33.8,87,30.21,7.0,Calm,Calm,-,N/A,,Overcast,0,2012-12-07 09:52:00
5:13 AM,37.4,35.6,93,30.20,10.0,Calm,Calm,-,N/A,,Overcast,0,2012-12-07 10:13:00
5:35 AM,37.4,35.6,93,30.21,10.0,Calm,Calm,-,N/A,,Overcast,0,2012-12-07 10:35:00
5:56 AM,37.4,35.6,93,30.21,10.0,Calm,Calm,-,N/A,,Overcast,0,2012-12-07 10:56:00
6:17 AM,39.2,35.6,87,30.21,10.0,South,3.5,-,N/A,,Overcast,180,2012-12-07 11:17:00
6:38 AM,39.2,35.6,87,30.21,10.0,Calm,Calm,-,N/A,,Overcast,0,2012-12-07 11:38:00
7:00 AM,39.2,37.4,93,30.21,10.0,Calm,Calm,-,N/A,,Overcast,0,2012-12-07 12:00:00
7:21 AM,39.2,37.4,93,30.20,10.0,Calm,Calm,-,N/A,,Overcast,0,2012-12-07 12:21:00
7:42 AM,41.0,37.4,87,30.21,10.0,Calm,Calm,-,N/A,,Overcast,0,2012-12-07 12:42:00
8:03 AM,41.0,37.4,87,30.20,10.0,Calm,Calm,-,N/A,,Overcast,0,2012-12-07 13:03:00
8:25 AM,41.0,37.4,87,30.20,10.0,Calm,Calm,-,N/A,,Overcast,0,2012-12-07 13:25:00
8:46 AM,41.0,37.4,87,30.20,10.0,Calm,Calm,-,N/A,,Overcast,0,2012-12-07 13:46:00
9:07 AM,42.8,39.2,87,30.20,10.0,Calm,Calm,-,N/A,,Overcast,0,2012-12-07 14:07:00
9:50 AM,42.8,39.2,87,30.20,10.0,South,4.6,-,N/A,,Overcast,190,2012-12-07 14:50:00
10:11 AM,44.6,41.0,87,30.20,10.0,SSW,3.5,-,N/A,,Overcast,210,2012-12-07 15:11:00
10:32 AM,44.6,41.0,87,30.19,10.0,Calm,Calm,-,N/A,,Overcast,0,2012-12-07 15:32:00
11:14 AM,44.6,41.0,87,30.17,10.0,South,4.6,-,N/A,,Overcast,190,2012-12-07 16:14:00
11:36 AM,46.4,41.0,81,30.16,10.0,Calm,Calm,-,N/A,,Overcast,0,2012-12-07 16:36:00
11:57 AM,46.4,41.0,81,30.14,10.0,SSE,5.8,-,N/A,,Overcast,160,2012-12-07 16:57:00
12:18 PM,46.4,41.0,81,30.13,10.0,South,4.6,-,N/A,,Overcast,180,2012-12-07 17:18:00
12:39 PM,46.4,41.0,81,30.12,10.0,South,4.6,-,N/A,,Overcast,190,2012-12-07 17:39:00
1:01 PM,48.2,41.0,76,30.12,10.0,SSW,4.6,-,N/A,,Overcast,200,2012-12-07 18:01:00
1:22 PM,50.0,41.0,71,30.10,10.0,South,5.8,-,N/A,,Overcast,190,2012-12-07 18:22:00
1:43 PM,50.0,41.0,71,30.10,10.0,SSW,5.8,-,N/A,,Overcast,210,2012-12-07 18:43:00
2:04 PM,50.0,41.0,71,30.09,10.0,South,5.8,-,N/A,,Overcast,190,2012-12-07 19:04:00
2:26 PM,50.0,41.0,71,30.08,10.0,South,4.6,-,N/A,,Overcast,190,2012-12-07 19:26:00
2:47 PM,50.0,41.0,71,30.08,10.0,SSW,4.6,-,N/A,,Overcast,200,2012-12-07 19:47:00
3:08 PM,50.0,41.0,71,30.08,10.0,SW,5.8,-,N/A,,Overcast,220,2012-12-07 20:08:00
3:29 PM,50.0,42.8,76,30.08,10.0,Calm,Calm,-,N/A,,Overcast,0,2012-12-07 20:29:00
3:51 PM,50.0,42.8,76,30.08,10.0,Calm,Calm,-,N/A,,Overcast,0,2012-12-07 20:51:00
4:12 PM,50.0,42.8,76,30.08,10.0,Calm,Calm,-,N/A,,Overcast,0,2012-12-07 21:12:00
4:33 PM,50.0,42.8,76,30.08,10.0,Calm,Calm,-,N/A,,Overcast,0,2012-12-07 21:33:00
4:54 PM,48.2,44.6,87,30.08,7.0,Calm,Calm,-,N/A,,Overcast,0,2012-12-07 21:54:00
5:16 PM,46.4,44.6,93,30.07,5.0,Calm,Calm,-,N/A,,Overcast,0,2012-12-07 22:16:00
5:37 PM,46.4,44.6,93,30.08,5.0,Calm,Calm,-,N/A,,Overcast,0,2012-12-07 22:37:00
5:58 PM,46.4,44.6,93,30.07,10.0,Calm,Calm,-,N/A,,Overcast,0,2012-12-07 22:58:00
6:19 PM,46.4,44.6,93,30.07,7.0,Calm,Calm,-,N/A,,Overcast,0,2012-12-07 23:19:00
6:41 PM,46.4,44.6,93,30.06,7.0,Calm,Calm,-,N/A,,Overcast,0,2012-12-07 23:41:00
7:02 PM,46.4,44.6,93,30.06,5.0,Calm,Calm,-,N/A,,Overcast,0,2012-12-08 00:02:00
7:23 PM,46.4,44.6,93,30.06,4.0,Calm,Calm,-,N/A,,Overcast,0,2012-12-08 00:23:00
7:44 PM,46.4,44.6,93,30.06,3.0,Calm,Calm,-,N/A,,Overcast,0,2012-12-08 00:44:00
8:27 PM,46.4,44.6,93,30.05,2.0,Calm,Calm,-,N/A,,Overcast,0,2012-12-08 01:27:00
8:48 PM,46.4,44.6,93,30.04,2.0,ENE,3.5,-,N/A,,Overcast,70,2012-12-08 01:48:00
9:09 PM,46.4,44.6,93,30.03,3.0,Calm,Calm,-,N/A,,Overcast,0,2012-12-08 02:09:00
9:31 PM,46.4,44.6,93,30.02,2.5,Calm,Calm,-,N/A,,Overcast,0,2012-12-08 02:31:00
9:52 PM,46.4,44.6,93,30.02,2.5,West,5.8,-,N/A,,Overcast,280,2012-12-08 02:52:00
10:56 PM,46.4,44.6,93,30.01,4.0,Calm,Calm,-,N/A,,Overcast,0,2012-12-08 03:56:00
11:17 PM,46.4,44.6,93,30.01,7.0,Calm,Calm,-,N/A,,Overcast,0,2012-12-08 04:17:00
11:38 PM,46.4,44.6,93,30.01,3.0,West,3.5,-,N/A,,Overcast,280,2012-12-08 04:38:00